Погода в Очкино

Украина / Сумская область     52°13′41″N   33°22′37″E
темп.,
°C
ветер,
м/с
пор.,
м/с
влажн.,
%
обл.,
%
осадки,
мм/ч
давл.,
гПа
погр.,
м
12 апреля, пн
пн1200:00+7всв3466100 0.0 102959
03:00+6всв3672100 0.0 102994
06:00+5св41074100 0.0 1027174
09:00+9всв51059100 0.0 1026498
12:00+10в5674100 0.3 1025511
15:00+14всв4768100 0.3 1023849
18:00+15в3670100 0.0 1021236
21:00+12св2285100 0.0 102130
13 апреля, вт
вт1300:00+11вюв2286100 0.0 102122
03:00+10юв348889 0.0 102156
06:00+9юв388659 0.0 1021149
09:00+13юв51074100 0.0 1021414
12:00+16ююв6964100 0.0 10211224
15:00+14ююв5974100 0.1 1021991
18:00+13ю4980100 0.1 1020579
21:00+11ю2492100 0.3 1020174
14 апреля, ср
ср1400:00+10ююв2294100 0.1 101933
03:00+10ююв259295 0.1 1019140
06:00+10юв2493100 0.0 101891
09:00+11юв358588 0.0 1018277
12:00+13ююз467190 0.2 1017900
15:00+15ю345995 0.3 10161170
18:00+14ю2369100 0.3 1015276
21:00+11юв2486100 1.9 1016131
15 апреля, чт
чт1500:00+10юв3690100 0.7 1016183
03:00+9юв229426 1.4 101518
06:00+8юв2293100 0.0 101514
09:00+11в2383100 0.0 1015195
12:00+14вюв456698 0.5 1014685
15:00+12в5679100 1.5 1014495
18:00+11всв358389 0.1 1013318
21:00+9всв34925 0.1 101365
16 апреля, пт
пт1600:00+8всв23945 0.0 101337
03:00+7всв2293100 0.0 101232
06:00+9в249599 0.8 1012108
09:00+9юв2595100 1.9 1012258
12:00+13вюв466946 1.5 10131049
15:00+14юв5761100 3.2 10131195
18:00+12юв477494 0.4 1014392
21:00+9ююв2581100 0.5 1016154